Location: Azul
(36.7830°S, 59.8500°W)
Time: 03:46:00
(UTC-03:00)

Envisat - Visible Passes

Search period start: 27 May 2020 00:00
Search period end: 06 June 2020 00:00
Orbit: 764 x 766 km, 98.1° (Epoch: 26 May)

Date Brightness Start Highest point End Pass type
(mag) Time Alt. Az. Time Alt. Az. Time Alt. Az.
27 May 4.7 05:49:37 10° NE 05:54:07 32° ESE 05:58:39 10° S visible
27 May 4.0 07:28:51 10° NNW 07:33:06 26° W 07:37:24 10° SW visible
27 May 3.4 19:39:11 10° S 19:44:17 63° WSW 19:49:19 10° NNW visible
28 May 5.7 05:14:56 10° E 05:17:43 15° ESE 05:20:31 10° SSE visible
28 May 3.0 06:51:08 10° N 06:56:10 62° W 07:01:17 10° SSW visible
28 May 3.1 19:02:27 10° SSE 19:07:31 56° E 19:12:30 10° N visible
28 May 5.6 20:42:56 10° SSW 20:46:01 16° WSW 20:49:05 10° WNW visible
29 May 3.6 06:14:26 10° NNE 06:19:25 57° ESE 06:24:29 10° S visible
29 May 4.1 18:26:25 10° SE 18:30:34 24° E 18:34:39 10° NNE visible
29 May 4.5 20:04:57 10° S 20:09:36 35° WSW 20:14:12 10° NW visible
30 May 5.0 05:38:43 10° ENE 05:42:53 26° ESE 05:47:04 10° SSE visible
30 May 3.7 07:17:07 10° NNW 07:21:42 34° W 07:26:21 10° SSW visible
30 May 3.1 19:27:48 10° S 19:32:59 81° WSW 19:38:04 10° NNW visible
31 May 5.9 05:04:51 10° E 05:06:32 12° ESE 05:08:15 10° SE visible
31 May 2.9 06:39:43 10° N 06:44:50 79° WNW 06:50:00 10° SSW visible
31 May 3.4 18:51:15 10° SSE 18:56:09 43° E 19:01:00 10° N visible
31 May 5.3 20:31:06 10° SSW 20:34:49 20° WSW 20:38:30 10° WNW visible
01 Jun 4.1 06:03:19 10° NE 06:08:08 45° ESE 06:13:02 10° S visible
01 Jun 4.4 18:15:34 10° SE 18:19:09 19° E 18:22:41 10° NE visible
01 Jun 4.0 19:53:27 10° S 19:58:21 45° WSW 20:03:10 10° NW visible
02 Jun 5.3 05:27:58 10° ENE 05:31:40 20° ESE 05:35:23 10° SSE visible
02 Jun 3.4 07:05:30 10° N 07:10:20 43° W 07:15:14 10° SSW visible
02 Jun 2.9 19:16:29 10° SSE 19:21:40 80° ENE 19:26:45 10° N visible
02 Jun 5.9 20:58:15 10° SW 20:59:56 12° WSW 21:01:36 10° W visible
03 Jun 3.1 06:28:25 10° NNE 06:33:30 81° ESE 06:38:40 10° S visible
03 Jun 3.7 18:40:08 10° SSE 18:44:47 34° E 18:49:22 10° NNE visible
03 Jun 5.0 20:19:25 10° SSW 20:23:36 26° WSW 20:27:45 10° WNW visible
04 Jun 4.5 05:52:17 10° NE 05:56:53 35° ESE 06:01:32 10° S visible
04 Jun 4.1 07:31:51 10° NNW 07:35:56 24° W 07:40:03 10° SW visible
04 Jun 3.6 19:42:01 10° S 19:47:04 57° WSW 19:52:03 10° NNW visible
05 Jun 5.6 05:17:23 10° ENE 05:20:28 16° ESE 05:23:34 10° SSE visible
05 Jun 3.1 06:53:58 10° N 06:58:58 56° W 07:04:02 10° SSW visible
05 Jun 3.0 19:05:13 10° SSE 19:10:19 62° E 19:15:22 10° N visible
05 Jun 5.7 20:45:58 10° SSW 20:48:46 15° WSW 20:51:33 10° W visible
